Tracking 22124 objects as of 25-Jan-2021
HD Live streaming from Space Station
objects crossing your sky now

STARLINK-1348

Track STARLINK-1348 now!
10-day predictions
STARLINK-1348 is classified as:


NORAD ID: 45561
Int'l Code: 2020-025AG
Perigee: 410.4 km
Apogee: 415.7 km
Inclination: 53.0 °
Period: 92.7 minutes
Semi major axis: 6784 km
RCS: Unknown
Launch date: April 22, 2020
Source: United States (US)
Launch site: AIR FORCE EASTERN TEST RANGE (AFETR)
aabbcc
Your satellite tracking list
Your tracking list is empty




NASA's NSSDC Master Catalog

Two Line Element Set (TLE):
1 45561U 20025AG  21024.70418225 -.00150960  00000-0 -23543-2 0  9990
2 45561  52.9961 128.9801 0003877  52.5662 307.5699 15.53712516 44536
Source of the keplerian elements: AFSPC